[[{"header":{"parameterUnit":"m.s-1","parameterCategory":1,"la1":30.2991,"la2":30.254,"lo1":-89.0895,"lo2":-89.0444,"dy":0.0017,"dx":0.0017,"nx":28,"ny":28,"refTime":"2025-12-13T03:00:00:Z","depth":0,"parameterNumber":2,"parameterNumberName":"U-component_of_WINDS"},"data":[0,0,0,0,0,0,0,0,0,0,0,0,0,0,0,0,0,0,0,0,0,0,0,0,0,0,0,0,0,0,0,0,0,0,0,0,0,0,0,0,0,0,0,0,0,0,0,0,0,0,0,0,0,0,0,0,0,0,-1.8273,-1.8273,0,-1.8243,-1.8243,-1.8243,-1.8162,-1.816,-1.8158,-1.8156,-1.8126,-1.8127,-1.8128,0,0,0,0,0,0,0,0,0,0,0,0,0,-1.8262,-1.8263,-1.8273,-1.8273,-1.8272,-1.8244,-1.8243,-1.8243,-1.8162,-1.816,-1.8158,-1.8156,-1.8126,-1.8127,-1.8128,0,0,0,0,0,0,0,0,0,0,0,0,0,-1.8253,-1.8263,-1.8273,-1.8229,-1.8224,-1.8244,-1.8243,-1.8243,-1.8162,-1.816,-1.8157,-1.8155,-1.8125,-1.8127,-1.8128,-1.8188,0,0,-1.8132,-1.8132,0,0,0,0,0,0,0,0,-1.8254,-1.8254,-1.8236,-1.8232,-1.8227,-1.8204,-1.8228,-1.8224,-1.8163,-1.8186,-1.8156,-1.8153,-1.8154,-1.8153,-1.8153,-1.8186,-1.8185,-1.8132,-1.8132,-1.8133,-1.8133,0,0,0,0,0,0,0,-1.8254,-1.8254,-1.8261,-1.8235,-1.823,-1.8211,-1.8207,-1.8227,-1.8185,-1.8184,-1.8178,-1.8175,-1.8151,-1.8152,-1.8152,-1.8185,-1.8132,-1.8133,-1.8133,-1.8134,-1.8269,-1.8271,0,0,0,0,0,0,-1.8261,-1.8255,-1.8262,-1.826,-1.8234,-1.8213,-1.8208,-1.8214,-1.8185,-1.8178,-1.8178,-1.8172,-1.8151,-1.815,-1.815,-1.822,-1.8133,-1.8134,-1.8135,-1.8266,-1.8269,-1.8272,0,0,0,0,0,0,-1.8261,-1.8263,-1.8263,-1.8256,-1.8255,-1.8216,-1.8223,-1.8215,-1.8215,-1.818,-1.8172,-1.8186,-1.8149,-1.8148,-1.818,-1.8217,-1.8135,-1.8136,-1.8263,-1.8267,-1.8271,-1.8359,0,0,0,0,0,0,-1.8261,-1.8263,-1.8285,-1.8257,-1.8256,-1.8293,-1.8225,-1.8216,-1.8217,-1.8209,-1.8186,-1.8179,-1.8147,-1.8178,-1.8181,-1.8218,-1.8137,-1.8259,-1.8265,-1.827,-1.8352,-1.8365,-1.8377,0,0,0,0,0,-1.8261,-1.831,-1.8286,-1.8288,-1.8282,-1.8295,-1.8294,-1.8256,-1.8221,-1.8243,-1.8221,-1.818,-1.8213,-1.8182,-1.8184,-1.8222,-1.8256,-1.8263,-1.8269,-1.8347,-1.8363,-1.8376,0,0,0,0,0,0,-1.8342,-1.8306,-1.8279,-1.832,-1.8312,-1.8282,-1.8308,-1.8274,-1.8275,-1.8267,-1.822,-1.8216,-1.8254,-1.8241,-1.8207,-1.828,-1.8228,-1.8236,-1.8286,-1.8301,-1.8313,-1.8315,-1.8138,0,0,0,0,0,-1.8365,-1.8378,-1.8346,-1.8386,-1.8383,-1.8347,-1.8351,-1.8323,-1.8312,-1.8308,-1.8287,-1.8279,-1.8287,-1.8294,-1.83,-1.8351,-1.8345,-1.8378,-1.839,-1.84,-1.8407,-1.8435,-1.8449,-1.8293,-1.8293,-1.8293,0,0,-1.8411,-1.8393,-1.8405,-1.8402,-1.8391,-1.8408,-1.8344,-1.8363,-1.8374,-1.831,-1.8339,-1.8325,-1.8312,-1.8354,-1.8371,-1.8344,-1.8449,-1.8409,-1.8417,-1.8418,-1.8443,-1.8457,-1.8471,-1.8298,-1.8297,-1.8296,0,0,-1.8505,-1.8492,-1.8524,-1.8517,-1.8503,-1.8479,-1.8487,-1.8463,-1.8451,-1.8479,-1.8432,-1.8446,-1.8461,-1.8455,-1.8453,-1.8549,-1.8512,-1.8552,-1.8615,-1.8643,-1.8655,-1.8666,-1.8701,-1.8714,-1.8559,-1.8559,-1.8559,0,-1.8564,-1.8586,-1.8545,-1.8568,-1.8569,-1.8513,-1.8547,-1.8541,-1.853,-1.8532,-1.8503,-1.8522,-1.851,-1.855,-1.8574,-1.8575,-1.8583,-1.8554,-1.8657,-1.8667,-1.8677,-1.8709,-1.8722,-1.8564,-1.8564,-1.8563,-1.8563,0,-1.866,-1.8677,-1.8705,-1.8696,-1.87,-1.8728,-1.8693,-1.8703,-1.8675,-1.8655,-1.8686,-1.8669,-1.8672,-1.868,-1.8652,-1.8717,-1.8701,-1.8665,-1.8612,-1.8697,-1.8727,-1.8739,-1.8571,-1.8569,-1.8568,-1.8567,0,0,-1.88,-1.8772,-1.8783,-1.8779,-1.8762,-1.8774,-1.8801,-1.8804,-1.8813,-1.8809,-1.883,-1.8846,-1.8814,-1.8813,-1.8785,-1.8809,-1.8887,-1.877,-1.8769,-1.8793,-1.8959,-1.8986,-1.9001,-1.8863,-1.8866,-1.8867,-1.896,0,-1.8888,-1.8931,-1.8898,-1.8947,-1.8963,-1.8912,-1.8935,-1.8928,-1.8911,-1.8922,-1.8903,-1.8915,-1.8871,-1.887,-1.8893,-1.8873,-1.892,-1.8866,-1.8883,-1.8884,-1.8887,-1.9016,-1.9043,-1.9131,-1.8971,-1.8973,-1.8975,0,-1.8996,-1.8997,-1.9049,-1.903,-1.9036,-1.9057,-1.9059,-1.907,-1.9061,-1.9047,-1.9048,-1.9015,-1.9041,-1.899,-1.9026,-1.8991,-1.8996,-1.8988,-1.8991,-1.899,-1.8934,-1.9018,-1.9158,-1.9172,-1.8992,-1.8991,-1.899,0,-1.9093,-1.9108,-1.9141,-1.914,-1.9119,-1.9136,-1.9128,-1.9117,-1.9122,-1.9124,-1.9127,-1.9132,-1.9135,-1.914,-1.9109,-1.9075,-1.915,-1.9096,-1.9139,-1.914,-1.9156,-1.9155,-1.9299,-1.9161,-1.9161,-1.9161,-1.916,0,-1.9195,-1.9228,-1.9185,-1.9205,-1.9242,-1.9204,-1.9242,-1.9229,-1.9221,-1.9238,-1.9195,-1.9213,-1.9172,-1.9186,-1.9162,-1.9197,-1.9198,-1.9188,-1.9181,-1.9191,-1.9193,-1.9193,-1.9186,-1.9164,-1.9163,-1.9163,-1.9162,0,-1.9308,-1.9281,-1.9314,-1.9293,-1.9288,-1.9317,-1.9299,-1.9317,-1.9299,-1.9322,-1.9325,-1.9296,-1.9311,-1.9281,-1.9291,-1.9276,-1.9324,-1.9308,-1.9327,-1.9322,-1.9367,-1.9363,-1.9515,-1.9533,-1.9385,-1.9386,-1.9388,0,-1.9374,-1.9399,-1.9381,-1.939,-1.9385,-1.94,-1.9406,-1.9371,-1.9378,-1.9373,-1.9392,-1.9404,-1.941,-1.9436,-1.9416,-1.9425,-1.9408,-1.9461,-1.9409,-1.9419,-1.9409,-1.9408,-1.941,-1.9471,-1.9473,-1.9475,-1.9476,0,-1.9494,-1.948,-1.9489,-1.9496,-1.9504,-1.9506,-1.9506,-1.9516,-1.9479,-1.949,-1.9505,-1.9511,-1.9522,-1.9534,-1.9539,-1.9531,-1.9498,-1.9493,-1.9503,-1.9513,-1.9523,-1.9519,-1.9356,-1.9489,-1.9488,-1.9487,-1.9486,-1.9485,-1.9586,-1.9606,-1.9598,-1.961,-1.9607,-1.9609,-1.9626,-1.961,-1.9622,-1.9629,-1.9608,-1.9628,-1.9622,-1.9624,-1.9621,-1.9637,-1.9613,-1.9628,-1.9632,-1.9636,-1.9643,-1.9522,-1.9638,-1.9637,-1.9637,-1.9637,-1.9636,0,-1.9703,-1.9696,-1.9709,-1.971,-1.9721,-1.969,-1.9689,-1.97,-1.9719,-1.9716,-1.9724,-1.9743,-1.9755,-1.9737,-1.9747,-1.9763,-1.9749,-1.9767,-1.9765,-1.9764,-1.9664,-1.9654,-1.9779,-1.9779,-1.9779,-1.9779,-1.9779,-1.9779,-1.9766,-1.9799,-1.9785,-1.9818,-1.981,-1.983,-1.9832,-1.9834,-1.9832,-1.9854,-1.9865,-1.9854,-1.9845,-1.9855,-1.9865,-1.986,-1.9865,-1.989,-1.9879,-1.9785,-1.9771,-1.9758,-1.9748,-1.9891,-1.9891,-1.9978,-1.9979,-1.9979]},{"header":{"parameterUnit":"m.s-1","parameterCategory":1,"la1":30.2991,"la2":30.254,"lo1":-89.0895,"lo2":-89.0444,"dy":0.0017,"dx":0.0017,"nx":28,"ny":28,"refTime":"2025-12-13T03:00:00:Z","depth":0,"parameterNumber":3,"parameterNumberName":"V-component_of_WINDS"},"data":[0,0,0,0,0,0,0,0,0,0,0,0,0,0,0,0,0,0,0,0,0,0,0,0,0,0,0,0,0,0,0,0,0,0,0,0,0,0,0,0,0,0,0,0,0,0,0,0,0,0,0,0,0,0,0,0,0,0,1.9421,1.9421,0,1.941,1.941,1.941,1.9449,1.945,1.9451,1.9452,1.9437,1.9435,1.9434,0,0,0,0,0,0,0,0,0,0,0,0,0,1.9473,1.9472,1.9421,1.9421,1.9421,1.941,1.941,1.941,1.9449,1.945,1.9452,1.9453,1.9437,1.9436,1.9434,0,0,0,0,0,0,0,0,0,0,0,0,0,1.9455,1.9471,1.9421,1.9439,1.9441,1.941,1.941,1.941,1.9448,1.945,1.9452,1.9454,1.9438,1.9436,1.9434,1.9384,0,0,1.9427,1.9426,0,0,0,0,0,0,0,0,1.9456,1.9453,1.9436,1.9438,1.9439,1.9433,1.9423,1.9401,1.9448,1.9445,1.9452,1.9454,1.9434,1.9432,1.9426,1.9383,1.9383,1.9426,1.9425,1.9424,1.9423,0,0,0,0,0,0,0,1.9457,1.9454,1.9417,1.9436,1.9438,1.9447,1.9446,1.9419,1.943,1.9446,1.9448,1.9447,1.9435,1.9428,1.9426,1.9383,1.9427,1.9424,1.9423,1.9422,1.9301,1.9299,0,0,0,0,0,0,1.9456,1.9454,1.9417,1.9416,1.9452,1.9444,1.9444,1.9433,1.943,1.9431,1.9445,1.9449,1.9431,1.9428,1.9425,1.9368,1.9424,1.9422,1.9421,1.9303,1.93,1.9298,0,0,0,0,0,0,1.9457,1.9453,1.9417,1.9436,1.9432,1.9442,1.9429,1.9432,1.9425,1.943,1.9432,1.9436,1.9432,1.9429,1.9395,1.9368,1.9421,1.9419,1.9305,1.9302,1.9299,1.9253,0,0,0,0,0,0,1.9459,1.9453,1.9435,1.9436,1.9431,1.9387,1.9428,1.943,1.9422,1.9426,1.9422,1.9423,1.9433,1.9398,1.9393,1.9366,1.9417,1.9307,1.9303,1.93,1.9257,1.9249,1.9242,0,0,0,0,0,1.946,1.9421,1.9433,1.9429,1.9409,1.9386,1.9383,1.9397,1.9419,1.9401,1.9404,1.9423,1.9372,1.9394,1.9388,1.9361,1.9309,1.9304,1.93,1.926,1.9251,1.9243,0,0,0,0,0,0,1.9414,1.9421,1.9435,1.9395,1.939,1.9393,1.9369,1.9386,1.9374,1.9378,1.9395,1.9393,1.9357,1.9356,1.938,1.9314,1.9344,1.9339,1.9316,1.9307,1.9299,1.93,1.9415,0,0,0,0,0,1.94,1.9382,1.9388,1.9352,1.9349,1.936,1.935,1.9362,1.9356,1.9354,1.9355,1.9348,1.9331,1.9319,1.9303,1.9258,1.9257,1.9236,1.9229,1.9223,1.9217,1.9194,1.9185,1.9284,1.9284,1.9285,0,0,1.9369,1.937,1.9357,1.9343,1.934,1.9321,1.9357,1.9334,1.932,1.935,1.9319,1.9319,1.9313,1.9273,1.9256,1.9271,1.919,1.9217,1.9212,1.921,1.9189,1.9179,1.9171,1.9282,1.9282,1.9283,0,0,1.9302,1.9302,1.9272,1.927,1.9266,1.9274,1.9267,1.9268,1.927,1.9239,1.9262,1.9244,1.9214,1.9209,1.9202,1.9137,1.9154,1.9131,1.9092,1.9069,1.9062,1.9055,1.9032,1.9023,1.9126,1.9126,1.9126,0,1.9264,1.9236,1.9254,1.9231,1.9224,1.9253,1.9223,1.9219,1.9209,1.9204,1.9221,1.9185,1.9183,1.9143,1.9128,1.9121,1.9113,1.9131,1.9062,1.9055,1.9049,1.9027,1.9018,1.9123,1.9123,1.9124,1.9124,0,1.9189,1.917,1.9146,1.9139,1.913,1.9103,1.9116,1.9104,1.9117,1.9123,1.9092,1.9091,1.9076,1.9067,1.9079,1.903,1.9039,1.9059,1.909,1.9036,1.9016,1.9008,1.9119,1.912,1.9121,1.9122,0,0,1.9092,1.9097,1.9088,1.9086,1.9085,1.907,1.9045,1.9032,1.9022,1.9015,1.8994,1.8969,1.8988,1.898,1.8992,1.8972,1.8921,1.8994,1.8994,1.8981,1.8867,1.8852,1.8842,1.8933,1.8931,1.893,1.8868,0,1.9027,1.8985,1.9002,1.8959,1.8941,1.897,1.8948,1.8945,1.895,1.8935,1.8941,1.8923,1.8949,1.8945,1.8927,1.8931,1.8898,1.8936,1.8913,1.8912,1.8913,1.8832,1.8815,1.8757,1.886,1.8859,1.8858,0,1.8945,1.8938,1.8893,1.8897,1.8891,1.8871,1.8861,1.8847,1.8845,1.885,1.8843,1.8859,1.8835,1.8866,1.8832,1.8858,1.885,1.885,1.8848,1.8846,1.8881,1.8827,1.8738,1.8729,1.8846,1.8847,1.8847,0,1.8879,1.8857,1.8828,1.8825,1.8829,1.8815,1.8816,1.8815,1.8807,1.8799,1.8794,1.8782,1.8775,1.8765,1.8778,1.88,1.8742,1.8775,1.8745,1.8745,1.8731,1.8732,1.8639,1.8726,1.8727,1.8727,1.8727,0,1.8804,1.8776,1.8799,1.8781,1.875,1.877,1.8738,1.8742,1.8742,1.8725,1.8748,1.8731,1.875,1.8734,1.8744,1.8715,1.8711,1.8715,1.8717,1.8712,1.8712,1.8707,1.8711,1.8724,1.8725,1.8725,1.8726,0,1.8724,1.8738,1.8709,1.8716,1.8718,1.8695,1.87,1.8684,1.8692,1.867,1.8666,1.8678,1.8662,1.8674,1.8657,1.8664,1.8625,1.8634,1.8627,1.8629,1.8599,1.8602,1.85,1.8487,1.8582,1.8582,1.8581,0,1.8675,1.8655,1.8661,1.8652,1.8652,1.8637,1.863,1.8649,1.864,1.8637,1.8621,1.8607,1.8597,1.8569,1.8576,1.8563,1.8572,1.8537,1.857,1.8566,1.8571,1.8572,1.857,1.853,1.8529,1.8528,1.8527,0,1.8588,1.8597,1.8586,1.8578,1.8569,1.8563,1.8559,1.855,1.857,1.8559,1.8544,1.8536,1.852,1.8506,1.8497,1.8497,1.8515,1.8517,1.851,1.8504,1.85,1.8502,1.8608,1.8519,1.852,1.852,1.8521,1.8521,1.8522,1.8505,1.8508,1.8495,1.8495,1.8491,1.8477,1.8484,1.8472,1.8462,1.8474,1.8455,1.8455,1.8444,1.8442,1.8427,1.8442,1.8431,1.8428,1.8425,1.8421,1.8504,1.8426,1.8426,1.8426,1.8426,1.8427,0,1.8435,1.8439,1.8428,1.8423,1.8413,1.8434,1.8431,1.8421,1.8405,1.8403,1.8394,1.8377,1.8364,1.8371,1.8359,1.8346,1.8354,1.8343,1.8343,1.8343,1.8408,1.8416,1.8336,1.8336,1.8336,1.8336,1.8336,1.8336,1.8389,1.8363,1.8372,1.8346,1.835,1.8333,1.833,1.8326,1.8326,1.8306,1.8296,1.8302,1.8303,1.8293,1.8282,1.8284,1.8279,1.8264,1.8269,1.833,1.8338,1.8347,1.8354,1.8263,1.8263,1.8205,1.8204,1.8204]}]]